Time,TemperatureF,DewpointF,PressureIn,WindDirection,WindDirectionDegrees,WindSpeedMPH,WindSpeedGustMPH,Humidity,HourlyPrecipIn,Conditions,Clouds,dailyrainin,SoftwareType,DateUTC
2013-01-16 00:03:00,19.0,16.0,30.10,SSW,192,0.0,0.0,88,0.00,,,0.01,,2013-01-16 05:03:00,
2013-01-16 00:12:00,19.0,16.0,30.10,SSW,192,0.0,0.0,88,0.00,,,0.01,,2013-01-16 05:12:00,
2013-01-16 00:22:00,18.0,15.0,30.10,SSW,192,0.0,0.0,88,0.00,,,0.01,,2013-01-16 05:22:00,
2013-01-16 00:32:00,18.0,15.0,30.09,SSW,192,0.0,0.0,88,0.00,,,0.01,,2013-01-16 05:32:00,
2013-01-16 00:42:00,18.0,15.0,30.09,SSW,192,0.0,0.0,88,0.00,,,0.01,,2013-01-16 05:42:00,
2013-01-16 00:53:00,18.0,15.0,30.08,SSW,192,0.0,0.0,89,0.00,,,0.01,,2013-01-16 05:53:00,
2013-01-16 01:02:00,18.0,15.0,30.07,SSW,192,0.0,0.0,89,0.00,,,0.01,,2013-01-16 06:02:00,
2013-01-16 01:12:00,18.0,15.0,30.07,SSW,192,0.0,0.0,89,0.00,,,0.01,,2013-01-16 06:12:00,
2013-01-16 01:22:00,17.0,14.0,30.07,SSW,192,0.0,0.0,89,0.00,,,0.01,,2013-01-16 06:22:00,
2013-01-16 01:32:00,17.0,14.0,30.06,SSW,192,0.0,0.0,89,0.00,,,0.01,,2013-01-16 06:32:00,
2013-01-16 01:43:00,17.0,14.0,30.06,SSW,192,0.0,0.0,89,0.00,,,0.01,,2013-01-16 06:43:00,
2013-01-16 01:53:00,17.0,14.0,30.06,SSW,192,0.0,0.0,89,0.00,,,0.01,,2013-01-16 06:53:00,
2013-01-16 02:02:00,17.0,15.0,30.05,SSW,192,0.0,0.0,90,0.00,,,0.01,,2013-01-16 07:02:00,
2013-01-16 02:12:00,17.0,15.0,30.05,SSW,192,0.0,0.0,90,0.00,,,0.01,,2013-01-16 07:12:00,
2013-01-16 02:22:00,16.0,14.0,30.05,SSW,192,0.0,0.0,90,0.00,,,0.01,,2013-01-16 07:22:00,
2013-01-16 02:32:00,17.0,15.0,30.05,SSW,192,0.0,0.0,91,0.00,,,0.01,,2013-01-16 07:32:00,
2013-01-16 02:42:00,17.0,15.0,30.05,SSW,192,0.0,0.0,91,0.00,,,0.01,,2013-01-16 07:42:00,
2013-01-16 02:52:00,17.0,15.0,30.03,SSW,192,0.0,0.0,91,0.00,,,0.01,,2013-01-16 07:52:00,
2013-01-16 03:02:00,18.0,16.0,30.03,SSW,192,0.0,0.0,91,0.00,,,0.01,,2013-01-16 08:02:00,
2013-01-16 03:12:00,18.0,16.0,30.03,SSW,192,0.0,0.0,91,0.00,,,0.01,,2013-01-16 08:12:00,
2013-01-16 03:22:00,18.0,16.0,30.03,SSW,192,0.0,0.0,91,0.00,,,0.01,,2013-01-16 08:22:00,
2013-01-16 03:32:00,18.0,16.0,30.02,SSW,192,0.0,1.0,92,0.00,,,0.01,,2013-01-16 08:32:00,
2013-01-16 03:42:00,18.0,16.0,30.02,SSW,192,0.0,1.0,92,0.00,,,0.01,,2013-01-16 08:42:00,
2013-01-16 03:52:00,18.0,16.0,30.03,SSW,192,0.0,0.0,91,0.00,,,0.01,,2013-01-16 08:52:00,
2013-01-16 04:02:00,18.0,16.0,30.03,SSW,192,0.0,0.0,91,0.00,,,0.01,,2013-01-16 09:02:00,
2013-01-16 04:11:00,18.0,16.0,30.03,SSW,192,0.0,0.0,91,0.00,,,0.01,,2013-01-16 09:11:00,
2013-01-16 04:22:00,19.0,17.0,30.03,SSW,192,0.0,0.0,91,0.00,,,0.01,,2013-01-16 09:22:00,
2013-01-16 04:32:00,19.0,17.0,30.03,SSW,192,0.0,0.0,92,0.00,,,0.01,,2013-01-16 09:32:00,
2013-01-16 04:42:00,19.0,17.0,30.03,SSW,192,0.0,0.0,92,0.00,,,0.01,,2013-01-16 09:42:00,
2013-01-16 04:53:00,20.0,18.0,30.03,SSW,192,0.0,0.0,92,0.00,,,0.01,,2013-01-16 09:53:00,
2013-01-16 05:02:00,20.0,18.0,30.02,SSW,192,0.0,0.0,91,0.00,,,0.01,,2013-01-16 10:02:00,
2013-01-16 05:12:00,20.0,18.0,30.02,SSW,192,0.0,0.0,91,0.00,,,0.01,,2013-01-16 10:12:00,
2013-01-16 05:22:00,20.0,18.0,30.01,SSW,192,0.0,0.0,92,0.00,,,0.01,,2013-01-16 10:22:00,
2013-01-16 05:32:00,21.0,19.0,30.01,SSW,192,0.0,0.0,92,0.00,,,0.01,,2013-01-16 10:32:00,
2013-01-16 05:42:00,21.0,19.0,30.01,SSW,192,0.0,0.0,92,0.00,,,0.01,,2013-01-16 10:42:00,
2013-01-16 05:53:00,21.0,19.0,29.99,SSW,192,0.0,0.0,91,0.00,,,0.01,,2013-01-16 10:53:00,
2013-01-16 06:02:00,21.0,19.0,29.98,SSW,192,0.0,0.0,91,0.00,,,0.01,,2013-01-16 11:02:00,
2013-01-16 06:12:00,21.0,19.0,29.98,SSW,192,0.0,0.0,91,0.00,,,0.01,,2013-01-16 11:12:00,
2013-01-16 06:22:00,20.0,18.0,29.97,SSW,192,0.0,0.0,92,0.00,,,0.01,,2013-01-16 11:22:00,
2013-01-16 06:32:00,20.0,18.0,29.97,SSW,192,0.0,0.0,91,0.00,,,0.01,,2013-01-16 11:32:00,
2013-01-16 06:42:00,20.0,18.0,29.97,SSW,192,0.0,0.0,91,0.00,,,0.01,,2013-01-16 11:42:00,
2013-01-16 06:53:00,20.0,18.0,29.96,SSW,192,0.0,0.0,91,0.00,,,0.01,,2013-01-16 11:53:00,
2013-01-16 07:03:00,19.0,17.0,29.96,SSW,192,0.0,0.0,91,0.00,,,0.01,,2013-01-16 12:03:00,
2013-01-16 07:12:00,19.0,17.0,29.96,SSW,192,0.0,0.0,91,0.00,,,0.01,,2013-01-16 12:12:00,
2013-01-16 07:22:00,19.0,17.0,29.96,SSW,192,0.0,0.0,91,0.00,,,0.01,,2013-01-16 12:22:00,
2013-01-16 07:33:00,18.0,16.0,29.94,SSW,192,0.0,0.0,91,0.00,,,0.01,,2013-01-16 12:33:00,
2013-01-16 07:43:00,18.0,16.0,29.94,SSW,192,0.0,0.0,91,0.00,,,0.01,,2013-01-16 12:43:00,
2013-01-16 07:53:00,18.0,16.0,29.94,SSW,192,0.0,0.0,91,0.00,,,0.01,,2013-01-16 12:53:00,
2013-01-16 08:02:00,17.0,15.0,29.94,SSW,192,0.0,0.0,92,0.00,,,0.01,,2013-01-16 13:02:00,
2013-01-16 08:12:00,17.0,15.0,29.94,SSW,192,0.0,0.0,92,0.00,,,0.01,,2013-01-16 13:12:00,
2013-01-16 08:22:00,18.0,16.0,29.94,SSW,192,0.0,0.0,92,0.00,,,0.01,,2013-01-16 13:22:00,
2013-01-16 08:33:00,18.0,16.0,29.95,SSW,192,0.0,1.0,92,0.00,,,0.01,,2013-01-16 13:33:00,
2013-01-16 08:43:00,18.0,16.0,29.95,SSW,192,0.0,1.0,92,0.00,,,0.01,,2013-01-16 13:43:00,
2013-01-16 08:53:00,18.0,16.0,29.95,SSW,192,0.0,1.0,92,0.00,,,0.01,,2013-01-16 13:53:00,
2013-01-16 09:03:00,20.0,18.0,29.95,SSW,192,0.0,1.0,91,0.00,,,0.01,,2013-01-16 14:03:00,
2013-01-16 09:12:00,20.0,18.0,29.95,SSW,192,0.0,1.0,91,0.00,,,0.01,,2013-01-16 14:12:00,
2013-01-16 09:22:00,21.0,19.0,29.94,WSW,237,0.0,2.0,91,0.00,,,0.01,,2013-01-16 14:22:00,
2013-01-16 09:32:00,22.0,19.0,29.95,West,271,0.0,7.0,89,0.00,,,0.01,,2013-01-16 14:32:00,
2013-01-16 09:42:00,22.0,19.0,29.95,West,271,0.0,7.0,89,0.00,,,0.01,,2013-01-16 14:42:00,
2013-01-16 09:53:00,23.0,19.0,29.95,SW,232,1.0,8.0,86,0.00,,,0.01,,2013-01-16 14:53:00,
2013-01-16 10:03:00,24.0,20.0,29.96,West,267,3.0,8.0,83,0.00,,,0.01,,2013-01-16 15:03:00,
2013-01-16 10:12:00,24.0,20.0,29.96,West,267,3.0,8.0,83,0.00,,,0.01,,2013-01-16 15:12:00,
2013-01-16 10:22:00,24.0,19.0,29.96,SW,232,4.0,9.0,80,0.00,,,0.01,,2013-01-16 15:22:00,
2013-01-16 10:33:00,25.0,19.0,29.96,SW,232,1.0,7.0,78,0.00,,,0.01,,2013-01-16 15:33:00,
2013-01-16 10:43:00,25.0,19.0,29.96,SW,232,1.0,7.0,78,0.00,,,0.01,,2013-01-16 15:43:00,
2013-01-16 10:53:00,26.0,19.0,29.95,WSW,246,4.0,8.0,74,0.00,,,0.01,,2013-01-16 15:53:00,
2013-01-16 11:03:00,27.0,19.0,29.94,SW,220,2.0,10.0,72,0.00,,,0.01,,2013-01-16 16:03:00,
2013-01-16 11:12:00,27.0,19.0,29.94,SW,220,2.0,10.0,72,0.00,,,0.01,,2013-01-16 16:12:00,
2013-01-16 11:22:00,28.0,20.0,29.93,SSE,165,3.0,11.0,71,0.00,,,0.01,,2013-01-16 16:22:00,
2013-01-16 11:32:00,28.0,19.0,29.92,SSW,193,5.0,9.0,68,0.00,,,0.01,,2013-01-16 16:32:00,
2013-01-16 11:42:00,28.0,19.0,29.92,SSW,193,5.0,9.0,68,0.00,,,0.01,,2013-01-16 16:42:00,
2013-01-16 11:53:00,29.0,19.0,29.91,SW,220,4.0,9.0,65,0.00,,,0.01,,2013-01-16 16:53:00,
2013-01-16 12:02:00,30.0,18.0,29.89,West,280,4.0,15.0,60,0.00,,,0.01,,2013-01-16 17:02:00,
2013-01-16 12:12:00,30.0,18.0,29.89,West,280,4.0,15.0,60,0.00,,,0.01,,2013-01-16 17:12:00,
2013-01-16 12:22:00,30.0,19.0,29.88,SW,233,3.0,13.0,63,0.00,,,0.01,,2013-01-16 17:22:00,
2013-01-16 12:33:00,30.0,18.0,29.88,SW,236,7.0,9.0,61,0.00,,,0.01,,2013-01-16 17:33:00,
2013-01-16 12:43:00,30.0,18.0,29.88,SW,236,7.0,9.0,61,0.00,,,0.01,,2013-01-16 17:43:00,
2013-01-16 12:53:00,31.0,18.0,29.88,SW,233,5.0,14.0,59,0.00,,,0.01,,2013-01-16 17:53:00,
2013-01-16 13:02:00,31.0,19.0,29.86,WSW,240,4.0,10.0,61,0.00,,,0.01,,2013-01-16 18:02:00,
2013-01-16 13:12:00,31.0,19.0,29.86,WSW,240,4.0,10.0,61,0.00,,,0.01,,2013-01-16 18:12:00,
2013-01-16 13:23:00,32.0,18.0,29.85,SW,222,5.0,13.0,55,0.00,,,0.01,,2013-01-16 18:23:00,
2013-01-16 13:33:00,32.0,16.0,29.85,SW,220,6.0,14.0,52,0.00,,,0.01,,2013-01-16 18:33:00,
2013-01-16 13:42:00,32.0,16.0,29.85,SW,220,6.0,14.0,52,0.00,,,0.01,,2013-01-16 18:42:00,
2013-01-16 13:53:00,33.0,18.0,29.84,West,277,3.0,11.0,53,0.00,,,0.01,,2013-01-16 18:53:00,
2013-01-16 14:03:00,33.0,16.0,29.84,SW,217,3.0,9.0,49,0.00,,,0.01,,2013-01-16 19:03:00,
2013-01-16 14:12:00,33.0,16.0,29.84,SW,217,3.0,9.0,49,0.00,,,0.01,,2013-01-16 19:12:00,
2013-01-16 14:23:00,33.0,16.0,29.83,NW,322,5.0,15.0,50,0.00,,,0.01,,2013-01-16 19:23:00,
2013-01-16 14:33:00,34.0,17.0,29.83,WNW,288,5.0,18.0,49,0.00,,,0.01,,2013-01-16 19:33:00,
2013-01-16 14:42:00,34.0,17.0,29.83,WNW,288,5.0,18.0,49,0.00,,,0.01,,2013-01-16 19:42:00,
2013-01-16 14:53:00,34.0,18.0,29.83,SW,226,3.0,15.0,51,0.00,,,0.01,,2013-01-16 19:53:00,
2013-01-16 15:03:00,34.0,17.0,29.82,West,268,5.0,16.0,50,0.00,,,0.00,,2013-01-16 20:03:00,
2013-01-16 15:12:00,34.0,17.0,29.82,West,268,5.0,16.0,50,0.00,,,0.00,,2013-01-16 20:12:00,
2013-01-16 15:23:00,35.0,19.0,29.83,West,275,4.0,17.0,51,0.00,,,0.00,,2013-01-16 20:23:00,
2013-01-16 15:33:00,35.0,19.0,29.82,SW,229,3.0,16.0,51,0.00,,,0.00,,2013-01-16 20:33:00,
2013-01-16 15:42:00,35.0,19.0,29.82,SW,229,3.0,16.0,51,0.00,,,0.00,,2013-01-16 20:42:00,
2013-01-16 15:53:00,35.0,19.0,29.82,WSW,253,6.0,16.0,51,0.00,,,0.00,,2013-01-16 20:53:00,
2013-01-16 16:02:00,35.0,19.0,29.83,SSW,209,2.0,13.0,51,0.00,,,0.00,,2013-01-16 21:02:00,
2013-01-16 16:12:00,35.0,19.0,29.83,SSW,209,2.0,13.0,51,0.00,,,0.00,,2013-01-16 21:12:00,
2013-01-16 16:22:00,36.0,20.0,29.83,West,260,4.0,11.0,52,0.00,,,0.00,,2013-01-16 21:22:00,
2013-01-16 16:33:00,35.0,20.0,29.83,WNW,298,2.0,11.0,55,0.00,,,0.00,,2013-01-16 21:33:00,
2013-01-16 16:43:00,35.0,20.0,29.83,WNW,298,2.0,11.0,55,0.00,,,0.00,,2013-01-16 21:43:00,
2013-01-16 16:53:00,34.0,20.0,29.84,WSW,241,4.0,16.0,56,0.00,,,0.00,,2013-01-16 21:53:00,
2013-01-16 17:02:00,34.0,21.0,29.84,SW,230,3.0,11.0,58,0.00,,,0.00,,2013-01-16 22:02:00,
2013-01-16 17:12:00,34.0,21.0,29.84,SW,230,3.0,11.0,58,0.00,,,0.00,,2013-01-16 22:12:00,
2013-01-16 17:22:00,34.0,21.0,29.85,NNW,337,3.0,15.0,59,0.00,,,0.00,,2013-01-16 22:22:00,
2013-01-16 17:33:00,34.0,21.0,29.85,NW,320,5.0,11.0,59,0.00,,,0.00,,2013-01-16 22:33:00,
2013-01-16 17:43:00,34.0,21.0,29.85,NW,320,5.0,11.0,59,0.00,,,0.00,,2013-01-16 22:43:00,
2013-01-16 17:53:00,34.0,22.0,29.85,SW,227,3.0,17.0,60,0.00,,,0.00,,2013-01-16 22:53:00,
2013-01-16 18:02:00,34.0,22.0,29.85,SW,217,5.0,16.0,62,0.00,,,0.00,,2013-01-16 23:02:00,
2013-01-16 18:12:00,34.0,23.0,29.85,SW,232,4.0,15.0,65,0.00,,,0.00,,2013-01-16 23:12:00,
2013-01-16 18:22:00,34.0,23.0,29.85,SW,232,4.0,15.0,65,0.00,,,0.00,,2013-01-16 23:22:00,
2013-01-16 18:32:00,33.0,24.0,29.87,WNW,291,2.0,15.0,68,0.00,,,0.00,,2013-01-16 23:32:00,
2013-01-16 18:42:00,33.0,24.0,29.87,WNW,291,2.0,15.0,68,0.00,,,0.00,,2013-01-16 23:42:00,
2013-01-16 18:53:00,33.0,24.0,29.88,West,268,2.0,16.0,69,0.00,,,0.00,,2013-01-16 23:53:00,
2013-01-16 19:02:00,33.0,24.0,29.88,West,265,1.0,10.0,70,0.00,,,0.00,,2013-01-17 00:02:00,
2013-01-16 19:12:00,33.0,24.0,29.88,West,265,1.0,10.0,70,0.00,,,0.00,,2013-01-17 00:12:00,
2013-01-16 19:22:00,33.0,24.0,29.88,West,270,0.0,10.0,69,0.00,,,0.00,,2013-01-17 00:22:00,
2013-01-16 19:32:00,34.0,25.0,29.90,West,272,5.0,11.0,69,0.00,,,0.00,,2013-01-17 00:32:00,
2013-01-16 19:42:00,34.0,25.0,29.90,West,272,5.0,11.0,69,0.00,,,0.00,,2013-01-17 00:42:00,
2013-01-16 19:52:00,34.0,25.0,29.90,West,278,2.0,8.0,69,0.00,,,0.00,,2013-01-17 00:52:00,
2013-01-16 20:02:00,34.0,25.0,29.90,NW,312,0.0,11.0,69,0.00,,,0.00,,2013-01-17 01:02:00,
2013-01-16 20:12:00,34.0,25.0,29.90,NW,312,0.0,11.0,69,0.00,,,0.00,,2013-01-17 01:12:00,
2013-01-16 20:22:00,34.0,26.0,29.90,West,272,4.0,15.0,71,0.00,,,0.00,,2013-01-17 01:22:00,
2013-01-16 20:32:00,34.0,26.0,29.91,West,277,2.0,15.0,73,0.00,,,0.00,,2013-01-17 01:32:00,
2013-01-16 20:42:00,34.0,26.0,29.91,West,277,2.0,15.0,73,0.00,,,0.00,,2013-01-17 01:42:00,
2013-01-16 20:52:00,33.0,25.0,29.92,SSW,209,1.0,11.0,73,0.00,,,0.00,,2013-01-17 01:52:00,
2013-01-16 21:02:00,33.0,25.0,29.92,WNW,301,1.0,11.0,73,0.00,,,0.00,,2013-01-17 02:02:00,
2013-01-16 21:12:00,33.0,25.0,29.92,WNW,301,1.0,11.0,73,0.00,,,0.00,,2013-01-17 02:12:00,
2013-01-16 21:22:00,33.0,25.0,29.93,NW,326,0.0,9.0,73,0.00,,,0.00,,2013-01-17 02:22:00,
2013-01-16 21:32:00,33.0,25.0,29.93,WNW,291,0.0,8.0,73,0.00,,,0.00,,2013-01-17 02:32:00,
2013-01-16 21:42:00,33.0,25.0,29.93,WNW,291,0.0,8.0,73,0.00,,,0.00,,2013-01-17 02:42:00,
2013-01-16 21:52:00,33.0,25.0,29.93,WNW,291,0.0,8.0,73,0.00,,,0.00,,2013-01-17 02:52:00,
2013-01-16 22:02:00,33.0,26.0,29.94,NW,318,1.0,7.0,74,0.00,,,0.00,,2013-01-17 03:02:00,
2013-01-16 22:12:00,33.0,26.0,29.94,NW,318,1.0,7.0,74,0.00,,,0.00,,2013-01-17 03:12:00,
2013-01-16 22:22:00,34.0,27.0,29.95,West,274,1.0,8.0,74,0.00,,,0.00,,2013-01-17 03:22:00,
2013-01-16 22:32:00,34.0,27.0,29.95,West,271,2.0,8.0,74,0.00,,,0.00,,2013-01-17 03:32:00,
2013-01-16 22:42:00,34.0,27.0,29.95,West,271,2.0,8.0,74,0.00,,,0.00,,2013-01-17 03:42:00,
2013-01-16 22:52:00,34.0,27.0,29.95,WSW,256,0.0,7.0,75,0.00,,,0.00,,2013-01-17 03:52:00,
2013-01-16 23:02:00,34.0,27.0,29.96,WNW,295,0.0,6.0,76,0.00,,,0.00,,2013-01-17 04:02:00,
2013-01-16 23:12:00,34.0,27.0,29.96,WNW,282,0.0,4.0,76,0.00,,,0.00,,2013-01-17 04:12:00,
2013-01-16 23:22:00,34.0,27.0,29.96,WNW,282,0.0,4.0,76,0.00,,,0.00,,2013-01-17 04:22:00,
2013-01-16 23:32:00,34.0,27.0,29.96,WNW,301,0.0,6.0,76,0.00,,,0.00,,2013-01-17 04:32:00,
2013-01-16 23:42:00,34.0,27.0,29.96,WNW,301,0.0,6.0,76,0.00,,,0.00,,2013-01-17 04:42:00,
2013-01-16 23:52:00,34.0,27.0,29.97,WNW,295,2.0,8.0,76,0.00,,,0.00,,2013-01-17 04:52:00,